Weather History for Weslaco, TX

Change the Weather History Date:

Sunday, April 20, 2014

  Actual Average (KMFE) Record (KMFE)
Temperature  
Mean Temperature 76 °F 77 °F  
Max Temperature 83 °F 88 °F 101 °F (1973)
Min Temperature 68 °F 67 °F 50 °F (2013)
Degree Days  
Heating Degree Days 0 0  
Month to date heating degree days 3  
Since 1 July heating degree days 574  
Cooling Degree Days 10 12  
Month to date cooling degree days 221  
Year to date cooling degree days 598  
Growing Degree Days 26 (Base 50)    
Moisture  
Dew Point 63 °F    
Average Humidity 71    
Maximum Humidity 85    
Minimum Humidity 50    
Precipitation  
Precipitation 0.00 in 0.05 in 1.17 in (1945)
Month to date precipitation 0.76  
Year to date precipitation 3.95  
Sea Level Pressure  
Sea Level Pressure 30.05 in    
Wind  
Wind Speed 8 mph (SE)    
Max Wind Speed 18 mph    
Max Gust Speed 23 mph    
Visibility 9 miles    
Events      
T = Trace of Precipitation, MM = Missing Value Source: NWS Daily Summary

Daily Weather History Graph

Daily Weather History Graph

Search for Another Location

Airport:

Trip Planner

Search our weather history database for the weather conditions in past years. The results will help you decide how hot, cold, wet, or windy it might be!

Date:

Astronomy

Apr. 20, 2014 Rise Set
Actual Time 7:03 AM CDT 7:58 PM CDT
Civil Twilight 6:40 AM CDT 8:21 PM CDT
Nautical Twilight 6:12 AM CDT 8:50 PM CDT
Astronomical Twilight 5:43 AM CDT 9:18 PM CDT
Moon 12:27 AM CDT (4/20) 11:36 AM CDT (4/20)
Length of Visible Light 13h 41m
Length of Day
12h 54m
Waning Gibbous, 68% of the Moon is Illuminated
Apr 20
Waning Gibbous
Apr 22
Last Quarter
Apr 29
New
May 6
First Quarter
May 14
Full

Hourly Weather History & Observations

Time (CDT) Temp. Heat Index Dew Point Humidity Pressure Visibility Wind Dir Wind Speed Gust Speed Precip Events Conditions
12:15 AM 69.3 °F - 63.0 °F 80% 30.07 in 10.0 mi SE 4.6 mph - N/A   Clear
12:35 AM 69.3 °F - 63.1 °F 81% 30.06 in 10.0 mi ESE 5.8 mph - N/A   Clear
12:55 AM 69.3 °F - 63.3 °F 81% 30.06 in 10.0 mi ESE 4.6 mph - N/A   Clear
1:15 AM 68.9 °F - 63.3 °F 82% 30.05 in 10.0 mi ESE 4.6 mph - N/A   Clear
1:35 AM 68.9 °F - 63.5 °F 83% 30.04 in 10.0 mi SE 6.9 mph - N/A   Clear
1:55 AM 68.9 °F - 63.5 °F 83% 30.04 in 10.0 mi SE 5.8 mph - N/A   Scattered Clouds
2:15 AM 69.3 °F - 63.5 °F 82% 30.04 in 10.0 mi ESE 5.8 mph - N/A   Mostly Cloudy
2:35 AM 68.9 °F - 63.5 °F 83% 30.03 in 10.0 mi East 4.6 mph - N/A   Scattered Clouds
2:55 AM 68.7 °F - 63.5 °F 83% 30.04 in 10.0 mi East 3.5 mph - N/A   Scattered Clouds
3:15 AM 68.9 °F - 63.7 °F 83% 30.04 in 10.0 mi East 3.5 mph - N/A   Mostly Cloudy
3:35 AM 68.9 °F - 63.7 °F 83% 30.03 in 10.0 mi ESE 3.5 mph - N/A   Overcast
3:55 AM 68.9 °F - 63.7 °F 83% 30.03 in 10.0 mi ESE 3.5 mph - N/A   Overcast
4:15 AM 68.9 °F - 63.9 °F 84% 30.02 in 10.0 mi East 3.5 mph - N/A   Overcast
4:35 AM 68.9 °F - 63.9 °F 84% 30.03 in 10.0 mi East 3.5 mph - N/A   Overcast
4:55 AM 68.9 °F - 63.9 °F 84% 30.04 in 10.0 mi ESE 3.5 mph - N/A   Overcast
5:15 AM 68.9 °F - 63.7 °F 83% 30.04 in 10.0 mi East 3.5 mph - N/A   Overcast
5:35 AM 68.9 °F - 63.5 °F 83% 30.04 in 10.0 mi East 4.6 mph - N/A   Overcast
5:55 AM 68.9 °F - 63.7 °F 83% 30.04 in 10.0 mi ESE 3.5 mph - N/A   Overcast
6:15 AM 68.2 °F - 63.3 °F 84% 30.04 in 10.0 mi East 4.6 mph - N/A   Scattered Clouds
6:35 AM 68.0 °F - 63.5 °F 85% 30.04 in 10.0 mi East 4.6 mph - N/A   Mostly Cloudy
6:55 AM 68.0 °F - 63.5 °F 85% 30.05 in 10.0 mi East 4.6 mph - N/A   Overcast
7:15 AM 68.0 °F - 63.5 °F 85% 30.06 in 10.0 mi East 5.8 mph - N/A   Overcast
7:35 AM 68.5 °F - 63.9 °F 85% 30.07 in 7.0 mi East 4.6 mph - N/A   Overcast
7:55 AM 68.9 °F - 64.0 °F 84% 30.07 in 7.0 mi East 5.8 mph - N/A   Overcast
8:15 AM 69.8 °F - 64.6 °F 83% 30.07 in 7.0 mi East 5.8 mph - N/A   Overcast
8:35 AM 71.1 °F - 65.3 °F 82% 30.08 in 7.0 mi ESE 6.9 mph - N/A   Overcast
8:55 AM 72.1 °F - 65.3 °F 79% 30.09 in 10.0 mi SE 10.4 mph - N/A   Overcast
9:15 AM 73.4 °F - 65.3 °F 76% 30.09 in 7.0 mi SE 11.5 mph 17.3 mph N/A   Overcast
9:35 AM 74.5 °F - 64.8 °F 72% 30.08 in 7.0 mi ESE 10.4 mph 19.6 mph N/A   Overcast
9:55 AM 77.5 °F - 64.8 °F 65% 30.08 in 10.0 mi SE 13.8 mph 21.9 mph N/A   Overcast
10:15 AM 77.9 °F - 64.2 °F 63% 30.08 in 10.0 mi SE 11.5 mph 19.6 mph N/A   Overcast
10:35 AM 77.7 °F - 64.0 °F 63% 30.09 in 7.0 mi SE 15.0 mph 19.6 mph N/A   Overcast
10:55 AM 79.9 °F - 63.7 °F 58% 30.08 in 10.0 mi ESE 11.5 mph 21.9 mph N/A   Scattered Clouds
11:15 AM 81.9 °F 83.2 °F 63.5 °F 54% 30.09 in 10.0 mi SSE 15.0 mph 19.6 mph N/A   Mostly Cloudy
11:35 AM 79.9 °F - 63.9 °F 58% 30.08 in 7.0 mi SE 11.5 mph 20.7 mph N/A   Mostly Cloudy
11:55 AM 81.7 °F 83.0 °F 63.5 °F 54% 30.08 in 10.0 mi SE 13.8 mph 23.0 mph N/A   Mostly Cloudy
12:15 PM 79.9 °F - 62.8 °F 56% 30.07 in 10.0 mi SE 13.8 mph 20.7 mph N/A   Overcast
12:35 PM 80.6 °F 81.8 °F 62.8 °F 54% 30.07 in 7.0 mi ESE 12.7 mph 20.7 mph N/A   Overcast
12:55 PM 79.9 °F - 62.6 °F 55% 30.07 in 10.0 mi SE 13.8 mph 18.4 mph N/A   Overcast
1:15 PM 83.5 °F 84.5 °F 63.1 °F 50% 30.06 in 10.0 mi SE 11.5 mph - N/A   Overcast
1:35 PM 81.1 °F 82.3 °F 62.8 °F 53% 30.06 in 10.0 mi SE 15.0 mph 21.9 mph N/A   Overcast
1:55 PM 80.6 °F 81.8 °F 62.8 °F 54% 30.05 in 7.0 mi SSE 12.7 mph 16.1 mph N/A   Overcast
2:15 PM 79.9 °F - 63.0 °F 56% 30.05 in 7.0 mi SE 11.5 mph - N/A   Overcast
2:35 PM 79.9 °F - 62.8 °F 56% 30.05 in 7.0 mi SSE 15.0 mph 19.6 mph N/A   Overcast
2:55 PM 79.9 °F - 62.8 °F 56% 30.04 in 10.0 mi SSE 12.7 mph 19.6 mph N/A   Overcast
3:15 PM 81.0 °F 82.1 °F 62.6 °F 53% 30.04 in 10.0 mi SE 12.7 mph 20.7 mph N/A   Overcast
3:35 PM 79.3 °F - 62.4 °F 56% 30.03 in 7.0 mi SE 11.5 mph 20.7 mph N/A   Overcast
3:55 PM 79.0 °F - 62.6 °F 57% 30.02 in 10.0 mi ESE 13.8 mph 20.7 mph N/A   Overcast
4:15 PM 78.4 °F - 62.8 °F 58% 30.02 in 10.0 mi SSE 15.0 mph 21.9 mph N/A   Overcast
4:35 PM 77.9 °F - 62.8 °F 60% 30.02 in 7.0 mi SSE 18.4 mph - N/A   Overcast
4:55 PM 77.5 °F - 63.0 °F 61% 30.01 in 10.0 mi SE 16.1 mph 19.6 mph N/A   Overcast
5:15 PM 77.4 °F - 63.3 °F 62% 30.01 in 10.0 mi SE 13.8 mph - N/A   Overcast
5:35 PM 77.2 °F - 63.3 °F 62% 30.01 in 10.0 mi SE 13.8 mph 20.7 mph N/A   Overcast
5:55 PM 77.0 °F - 63.1 °F 62% 30.01 in 10.0 mi SE 12.7 mph 21.9 mph N/A   Overcast
6:15 PM 76.8 °F - 63.0 °F 62% 30.00 in 10.0 mi SSE 13.8 mph 18.4 mph N/A   Overcast
6:35 PM 76.1 °F - 63.0 °F 64% 30.00 in 10.0 mi SSE 11.5 mph 17.3 mph N/A   Overcast
6:55 PM 75.6 °F - 63.1 °F 65% 30.01 in 10.0 mi SE 9.2 mph 19.6 mph N/A   Overcast
7:15 PM 75.4 °F - 63.5 °F 66% 30.01 in 10.0 mi SE 9.2 mph 17.3 mph N/A   Overcast
7:35 PM 75.2 °F - 63.5 °F 67% 30.01 in 10.0 mi SE 9.2 mph - N/A   Overcast
7:55 PM 74.8 °F - 63.5 °F 68% 30.01 in 10.0 mi SE 9.2 mph - N/A   Overcast
8:15 PM 74.3 °F - 63.1 °F 68% 30.01 in 10.0 mi SSE 12.7 mph 18.4 mph N/A   Overcast
8:35 PM 73.9 °F - 62.8 °F 68% 30.02 in 10.0 mi SE 13.8 mph - N/A   Overcast
8:55 PM 73.8 °F - 63.0 °F 69% 30.03 in 10.0 mi SSE 12.7 mph 16.1 mph N/A   Overcast
9:15 PM 73.4 °F - 62.4 °F 68% 30.04 in 10.0 mi SE 12.7 mph 19.6 mph N/A   Overcast
9:35 PM 73.4 °F - 62.2 °F 68% 30.04 in 10.0 mi SE 10.4 mph 17.3 mph N/A   Overcast
9:55 PM 72.5 °F - 62.6 °F 71% 30.04 in 10.0 mi SE 9.2 mph - N/A   Mostly Cloudy
10:15 PM 72.0 °F - 62.8 °F 73% 30.04 in 10.0 mi SE 10.4 mph 17.3 mph N/A   Clear
10:35 PM 71.6 °F - 63.5 °F 76% 30.05 in 10.0 mi SE 10.4 mph - N/A   Scattered Clouds
10:55 PM 70.9 °F - 63.5 °F 77% 30.05 in 10.0 mi SE 8.1 mph - N/A   Clear
11:15 PM 70.2 °F - 63.7 °F 80% 30.06 in 10.0 mi SE 8.1 mph - N/A   Clear
11:35 PM 70.0 °F - 63.7 °F 80% 30.06 in 10.0 mi SE 4.6 mph - N/A   Clear
11:55 PM 69.4 °F - 63.5 °F 81% 30.06 in 10.0 mi SE 3.5 mph - N/A   Clear